User: anonymous   Login
Location: Bothwell
(42.3833°S, 147.0000°E)
Time: 05:55:34
(UTC+10:00)
Language:

PicSat - Orbit

View from above orbital plane
View from above orbital plane
View from above satellite
View from above satellite

Ground track
Ground track

The orbit data is extracted from the following two-line orbital elements,

1 43131U 18004W   22267.16744591  .00030568  00000-0  75466-3 0  9994
2 43131  97.3696 346.9236 0005185   4.0793 356.0495 15.40448865261757
Epoch (UTC): 24 September 2022 04:01:07
Eccentricity: 0.0005185
inclination: 97.3696°
perigee height: 441 km
apogee height: 448 km
right ascension of ascending node: 346.9236°
argument of perigee: 4.0793°
revolutions per day: 15.40448865
mean anomaly at epoch: 356.0495°
orbit number at epoch: 26175

The dashed part of the orbit path shows where the satellite is in the earth's shadow,  

DLR